OneWeb SL0187

operational
NORAD ID: 48221 Int'l Des: 2021-031 Owner: ONEWEBN Country: UK Constellation: oneweb
LEOCIRCULARPOLARONEWEB_TYPE

关于 OneWeb SL0187

正在加载描述...

实时位置

正在加载3D地球...

即将过境

高度历史

Altitude vs Time

uPlot chart will show altitude changes over time

两行轨道根数

1 48221U 21031M 26034.53505781 .00000248 00000-0 63573-3 0 9994
2 48221 87.9021 316.3724 0001862 86.1415 273.9927 13.14502951230706
Epoch: Feb 3, 2026 • Age: 9 hours

当前状态

高度 1207.5 km
速度 7.25 km/s
星下点 11.91°N, 147.89°W
发射日期 Apr 25, 2021
运行时间 4.7 years
类型 internet

技术详情

分类 Payload
质量 148.00 kg
干质量 140.00 kg
总质量 148.00 kg
长度 1.30 m
直径 1.00 m
跨度 5.00 m
形状 Trapezoid+2 pan
制造商 ONEWUS
平台类型 ARROW
阶段状态 In Orbit
所有者/国家 ONEWEBN/UK

大型星座

Loading constellations...